sat.trackr.live / text

‹ back to catalog

STARLINK-11598 [DTC]

NORAD 63113 · 2025-039K

PAYLOAD ACTIVE UNKNOWN

§ Identity

Operator
Country
US
Launch date
2025-02-27
Launch site
AFETR
Launch vehicle
Mass (kg)
RCS (m²)

Purposes: comms

External: N2YO · Heavens-Above · Gunter

§ Orbital elements

Epoch: 2026-09-20T22:43:15.805344Z

Period
91.67 min
Inclination
42.9978°
Eccentricity
0.0000712
Mean motion
15.70863837 rev/d
Perigee alt
355.9 km
Apogee alt
356.9 km
Semi-major
6,734.6 km
B*
8.7278e-4
RAAN
139.9599°
Arg perigee
218.3528°
Mean anomaly
141.7289°
Rev number
9,032

§ Raw data

STARLINK-11598 [DTC]1 63113U 25039K   26263.94671071  .00113190  00000+0  87278-3 0  99962 63113  42.9978 139.9599 0000712 218.3528 141.7289 15.70863837 90323

JSON: /api/v1/satellites/63113 · /tle

For live sub-satellite position, see the globe view (requires WebGL).

§ Visibility from observer

Set your observer location to see the next 7 days of passes ≥ 10°. The values pass through the URL so the page stays shareable.

No JS? Fill the form by hand. The geolocation button needs JavaScript.